Location: *
(28.4500°N, 16.2500°W)
Time: 22:09:09
(UTC+00:00)

Daily predictions for brighter satellites

Satellite Brightness Start Highest point End
(mag) Time Altitude Azimuth Time Altitude Azimuth Time Altitude Azimuth
Cosmos 2227 Rocket 2.4 20:22:48 10° N 20:28:21 54° ENE 20:33:51 10° SE
Cosmos 2322 Rocket 4.0 20:30:09 10° ESE 20:31:06 10° E 20:32:03 10° E
Cosmos 1455 3.2 20:28:11 10° NNE 20:31:25 27° E 20:34:37 10° SE
CZ-2D R/B 4.2 20:28:20 10° S 20:32:04 50° W 20:35:50 10° NNW
GMS 1 Rocket B 4.3 20:28:27 10° WSW 20:32:38 66° SSE 20:36:31 10° E
Cosmos 1459 Rocket 4.4 20:26:31 10° SSW 20:32:39 72° W 20:38:55 10° N
Cosmos 2360 4.2 20:27:32 10° S 20:33:10 68° ESE 20:38:50 10° NNE
MOS 1 4.3 20:28:36 10° SSE 20:34:14 82° ENE 20:39:54 10° N
SL-16 R/B 3.8 20:31:58 10° SE 20:34:44 14° E 20:37:29 10° ENE
BREEZE-M (TANK) 4.4 20:26:18 10° NW 20:37:59 45° NNE 20:41:28 10° E
Cosmos 2219 3.8 20:32:24 10° NNW 20:38:05 62° WSW 20:43:42 10° S
FREGAT/IRIS 2.6 20:35:58 10° S 20:38:46 73° WSW 20:41:36 10° NNW
Delta 7925 Rocket 3.5 20:36:18 10° WSW 20:41:07 70° S 20:46:57 10° E
Cosmos-2242 4.4 20:41:16 10° NNW 20:45:16 41° W 20:49:15 10° SSW
Cosmos 1842 Rocket 4.0 20:41:07 10° N 20:45:21 44° E 20:49:32 10° SSE
ADEOS Rocket 3.6 20:44:42 10° NE 20:49:26 29° E 20:54:08 10° SSE
Cosmos 1271 Rocket 3.5 20:46:44 10° SSE 20:50:09 31° E 20:53:36 10° NNE
Cosmos 2297 Rocket 2.2 20:45:39 10° NNW 20:51:20 87° WSW 20:56:58 10° SSE
Cosmos 1703 3.7 20:50:19 10° SSW 20:54:14 66° W 20:58:11 10° N
ARGOS 3.7 20:54:14 12° SE 20:58:58 41° ENE 21:04:01 10° N
Cosmos 2082 3.7 20:57:01 10° NNW 21:02:44 70° ENE 21:07:47 13° SSE
H-2A R/B 2.5 20:58:59 12° SE 21:03:48 49° ENE 21:09:01 10° N
SL-24 R/B 4.5 20:59:28 10° NNE 21:03:52 54° ESE 21:08:54 10° S
Delta 168 2.6 21:01:37 10° WSW 21:04:35 44° S 21:06:15 22° ESE
Cosmos 2084 3.8 21:00:12 10° SW 21:04:47 73° WNW 21:09:17 10° NNE
CZ-3A R/B 3.6 21:05:38 10° SW 21:06:51 12° S 21:07:42 11° S
Cosmos 2263 Rocket 4.3 21:09:28 10° NE 21:10:24 10° ENE 21:11:20 10° ENE
Cosmos 1725 Rocket 4.4 21:05:21 10° SSW 21:11:32 67° W 21:17:48 10° N
Resurs 01 Rocket 2.3 21:09:07 20° SE 21:11:40 38° ENE 21:15:46 10° N
MTI 4.4 21:09:55 10° NNE 21:12:50 34° E 21:13:43 28° SE
Cosmos 44 3.7 21:11:50 10° SSW 21:17:11 77° WNW 21:22:23 10° NNE
SJ-6B 3.7 21:14:34 10° S 21:18:12 46° W 21:21:48 10° NNW
DMSP B5D2-2 4.2 21:17:14 10° NNE 21:22:18 52° E 21:26:45 13° S
Aureole 1 Rocket 3.3 21:20:46 21° SSE 21:23:09 46° E 21:28:00 10° NNE
Cosmos 2346 Rocket 4.5 21:21:32 10° N 21:27:36 82° W 21:33:32 10° S
Cosmos 2233 Rocket 4.2 21:25:56 10° S 21:32:09 73° W 21:38:28 10° N
IRIDIUM 104 4.3 21:27:25 10° N 21:32:37 69° E 21:35:50 23° SSE
Cosmos 2251 Rocket 3.4 21:27:39 10° S 21:32:51 70° ESE 21:38:04 10° NNE
Meteor 2-10 Rocket 4.0 21:32:07 10° NNW 21:37:36 66° W 21:42:37 13° S
SEDSat Delta rocket 4.2 21:33:00 10° W 21:39:20 60° SSW 21:42:29 32° SE
IRIDIUM 114 4.2 21:36:31 10° N 21:41:45 87° E 21:44:57 24° S
Cosmos 1340 Rocket 3.7 21:41:54 10° NNE 21:45:21 33° ENE 21:45:21 33° ENE
Cosmos 2360 Rocket 3.4 21:47:33 23° E 21:47:33 23° E 21:50:49 10° NE
GPS 2-12 Rocket1 4.4 21:42:46 10° WSW 21:45:57 23° SSW 21:45:57 23° SSW
Cosmos 1869 3.8 21:43:35 10° N 21:47:07 41° ENE 21:47:07 41° ENE
Meteor 1-27 4.5 21:43:42 10° NNW 21:49:31 71° W 21:53:26 21° S
IRIDIUM 103 4.4 21:45:38 10° N 21:50:50 75° W 21:54:03 24° S
ISS -3.8 21:47:38 10° SW 21:50:51 78° W 21:50:51 78° W
Cosmos 1980 Rocket 4.4 21:46:22 10° WSW 21:50:59 26° WNW 21:55:36 10° N
CZ-2C R/B 3.1 21:48:56 37° SSE 21:51:12 71° ENE 21:56:32 10° N
Cosmos 1302 Rocket 4.1 21:46:52 10° N 21:52:00 58° ENE 21:53:12 46° ESE
Cosmos 2034 Rocket 4.4 21:51:28 36° ESE 21:52:38 39° E 21:58:21 10° NNE
GMS 1 Rocket 4.4 21:48:54 10° W 21:52:55 82° N 21:54:19 44° E
Meteor 2-2 Rocket 4.3 21:47:27 10° N 21:53:06 79° W 21:56:12 28° S
Cosmos 1242 Rocket 2.6 21:56:29 67° NE 21:56:29 67° NE 21:59:46 10° N
ERS-1 Rocket 4.2 21:57:31 26° ENE 21:57:31 26° ENE 22:01:35 10° NNE
Cosmos 1238 Rocket 4.0 21:55:07 34° SSE 21:57:57 66° E 22:04:33 10° NNE
Cosmos 2058 3.7 21:55:21 19° SSW 21:58:08 50° W 22:02:13 10° N
MetOp-A 4.3 21:58:29 32° S 22:01:01 69° WSW 22:06:21 10° NNW
Cosmos 2221 4.3 21:58:43 10° NNW 22:02:28 29° W 22:05:31 14° SW
BREEZE M DEB (TANK) 3.6 22:00:01 10° NNW 22:03:07 24° NNE 22:03:07 24° NNE
SL-08 RB Rocket 4.4 22:01:55 30° SSW 22:03:47 48° W 22:08:07 10° NNW
Iridium 4 Rocket 3.8 22:03:22 10° N 22:09:12 61° E 22:10:05 55° SE
Cosmos 2322 Rocket 2.4 22:08:46 10° SSW 22:14:25 70° WNW 22:20:07 10° NNE
DELTA 2 R/B (1) 3.6 22:10:35 10° WSW 22:16:11 76° NNW 22:20:38 16° NE
SL-16 R/B 2.8 22:12:43 10° SW 22:18:14 55° WNW 22:23:48 10° N
Spot 2 Rocket 3.7 22:17:30 50° SSW 22:18:37 66° WSW 22:23:42 10° NNW
Cosmos 1464 Rocket 4.1 22:17:58 32° SSW 22:21:03 77° W 22:27:20 10° N
Cosmos 1461 4.3 22:17:59 10° N 22:20:27 28° NNE 22:20:27 28° NNE
CZ-2C R/B 2.7 22:21:28 10° N 22:26:39 69° WNW 22:27:59 48° SW
Cosmos 371 Rocket 3.4 22:23:00 10° NNW 22:27:50 66° WSW 22:27:56 66° WSW
Terra 3.5 22:35:37 23° NE 22:35:37 23° NE 22:38:07 10° NNE
Delta 7925 Rocket 3.9 22:30:53 10° W 22:35:47 60° SW 22:35:47 60° SW
Cosmos 332 Rocket 4.2 22:34:32 10° NNW 22:38:53 56° W 22:38:53 56° W
Cosmos 2237 4.4 22:47:39 63° NNE 22:47:39 63° NNE 22:52:24 10° NNE
Resurs 01 Rocket 4.2 22:46:41 11° WSW 22:48:12 13° W 22:50:17 10° WNW
APEX 4.4 22:53:39 75° WSW 22:54:02 79° WNW 23:01:02 10° NNE
Cosmos 2263 Rocket 2.3 22:49:12 10° NNW 22:54:19 71° NW 22:54:19 71° NW
USA 267 3.1 23:00:33 77° SW 23:00:38 77° SW 23:07:12 10° NW
SPOT 5 3.8 23:07:46 50° NNW 23:07:46 50° NNW 23:11:29 10° NNW
NOSS 3-1 (C) 4.3 23:11:26 38° NNE 23:11:26 38° NNE 23:15:01 10° NNE
Cosmos 2360 Rocket 3.7 23:29:14 30° W 23:30:02 31° WNW 23:34:59 10° N
Mayak 1.7 23:37:37 10° NNE 23:38:00 12° NNE 23:38:00 12° NNE
